Tracking 30313 objects as of 22-Apr-2025
HD Live streaming from Space Station
objects crossing your sky now

THORAD DELTA 1 DEB

Track THORAD DELTA 1 DEB now!
10-day predictions


NORAD ID: 8566
Int'l Code: 1974-089DD
Perigee: 1,332.4 km
Apogee: 1,470.1 km
Inclination: 101.4 °
Period: 113.7 minutes
Semi major axis: 7772 km
RCS: 0.0546 m2 (small)
Launch date: November 15, 1974
Source: United States (US)
Launch site: AIR FORCE WESTERN TEST RANGE (AFWTR)

Note: This is SATELLITE DEBRIS
Your satellite tracking list
Your tracking list is empty




NASA's NSSDC Master Catalog

Two Line Element Set (TLE):
1 08566U 74089DD  25111.69724216  .00000308  00000-0  18195-2 0  9997
2 08566 101.3965 190.6221 0088591 190.8652 323.0065 12.67017232245477
Source of the keplerian elements: AFSPC